This demonstration page uses our WeatherBlox Daily Observations layout. Learn more.

Left ArrowRight Arrow

Hourly Observations for April 5, 2021

Temp ( °F °C ) Dew Point ( °F °C ) Humidity (%) Winds ( mph kmh ) Pressure ( in mb ) Visibility ( mi km ) Precip ( " mm )
12:56 am 00:56 Clear 66 18.9 47 8.3 50 50 S 20 31 29.77 1008 10 16 0.00 0.00
1:56 am 01:56 Clear 64 17.8 47 8.3 54 54 SSW 20 31 29.76 1008 10 16 0.00 0.00
2:56 am 02:56 Clear 62 16.7 47 8.3 58 58 SSW 18 30 29.75 1007 10 16 0.00 0.00
3:56 am 03:56 Clear 59 15 47 8.3 64 64 SSW 15 24 29.74 1007 10 16 0.00 0.00
4:56 am 04:56 Clear 55 12.8 46 7.8 72 72 SSW 9 15 29.74 1007 10 16 0.00 0.00
5:56 am 05:56 Clear 53 11.7 47 8.3 80 80 S 10 17 29.73 1007 10 16 0.00 0.00
6:56 am 06:56 Clear 54 12.2 49 9.4 83 83 S 14 22 29.72 1006 10 16 0.00 0.00
7:56 am 07:56 Sunny 54 12.2 50 10 87 87 S 13 20 29.72 1007 10 16 0.00 0.00
8:56 am 08:56 Sunny 58 14.4 52 11.1 81 81 SSW 16 26 29.71 1006 10 16 0.00 0.00
9:56 am 09:56 Sunny 63 17.2 53 11.7 70 70 SSW 17 28 29.70 1006 10 16 0.00 0.00
10:56 am 10:56 Sunny 67 19.4 53 11.7 61 61 SSW 16 26 29.69 1005 10 16 0.00 0.00
11:56 am 11:56 Sunny 71 21.7 53 11.7 53 53 S 16 26 29.66 1004 10 16 0.00 0.00
12:56 pm 12:56 Sunny 75 23.9 53 11.7 46 46 S 14 22 29.63 1003 10 16 0.00 0.00
1:56 pm 13:56 Sunny 78 25.6 51 10.6 39 39 S 17 28 29.60 1002 10 16 0.00 0.00
2:56 pm 14:56 Sunny 78 25.6 52 11.1 40 40 S 21 33 29.59 1002 10 16 0.00 0.00
3:56 pm 15:56 Sunny 80 26.7 52 11.1 38 38 S 17 28 29.57 1001 10 16 0.00 0.00
4:56 pm 16:56 Sunny 81 27.2 51 10.6 35 35 S 15 24 29.55 1001 10 16 0.00 0.00
5:56 pm 17:56 Sunny 81 27.2 52 11.1 37 37 S 17 28 29.54 1000 10 16 0.00 0.00
6:56 pm 18:56 Sunny 78 25.6 53 11.7 42 42 S 10 17 29.54 1000 10 16 0.00 0.00
7:56 pm 19:56 Sunny 72 22.2 53 11.7 52 52 SSE 7 11 29.54 1000 10 16 0.00 0.00
8:56 pm 20:56 Clear 72 22.2 52 11.1 50 50 S 14 22 29.54 1000 10 16 0.00 0.00
9:56 pm 21:56 Clear 69 20.6 51 10.6 53 53 SSE 15 24 29.55 1001 10 16 0.00 0.00
10:56 pm 22:56 Clear 65 18.3 50 10 59 59 S 14 22 29.55 1001 10 16 0.00 0.00
11:56 pm 23:56 Clear 65 18.3 51 10.6 61 61 S 14 22 29.54 1001 10 16 0.00 0.00

Powered by AerisWeather